Regional Weather Roundup
Issued by NWS

Home | Current Version | Previous Version | Graphics & Text | Print | Product List | Glossary Off
Versions: 1 2 3 4 5 6 7 8 9 10 11 12 13 14 15 16 17 18 19 20 21 22 23 24 25 26 27 28 29 30 31 32 33 34 35 36 37 38 39 40 41 42 43 44 45 46 47 48 49 50

000
ASUS43 KDMX 271304
RWRIA

WEATHER ROUNDUP FOR IOWA
NATIONAL WEATHER SERVICE DES MOINES IA
  ISSUED BY NWS QUAD CITIES IA IL
700 AM CST TUE JAN 27 2015

NOTE: "FAIR" INDICATES FEW OR NO CLOUDS BELOW 12,000 FEET WITH NO
SIGNIFICANT WEATHER AND/OR OBSTRUCTIONS TO VISIBILITY.

* - THESE STATIONS ARE NOT NWS STATIONS...THUS NOT UNDER NWS
QUALITY CONTROL.  THEY ALSO DO NOT REPORT WEATHER SUCH
AS PRECIPITATION OR FOG.

IAZ001>003-012>014-020>022-031>034-043>046-271400-
   NORTHWEST IOWA

CITY           SKY/WX    TMP DP  RH WIND       PRES   REMARKS
CARROLL *      CLEAR     28  28 100 CALM      30.10R
CHEROKEE *     CLOUDY    31  31 100 CALM      30.10R
DENNISON *     FOG       27  27 100 CALM      30.09R VSB 3/4
LE MARS *      PTCLDY    27  27 100 CALM      30.10R
ORANGE CITY *  FOG       32  30  93 E5        30.09R VSB 1/4 WCI  27
SHELDON *      CLOUDY    30  32 100 E7        30.08R WCI  23
SIOUX CITY     FOG       27  25  92 E3        30.10R VSB 1
SPENCER        CLOUDY    31  28  89 NE8       30.09R WCI  23
STORM LAKE *   CLEAR     28  28 100 NE3       30.09R
$$

IAZ055>058-069>071-079>083-090>094-271400-
   SOUTHWEST IOWA

CITY           SKY/WX    TMP DP  RH WIND       PRES   REMARKS
ATLANTIC *     CLEAR     25  25 100 CALM      30.11R
AUDUBON *      CLEAR     25  21  86 CALM      30.10R
CLARINDA *     FOG       25  25 100 CALM      30.14R VSB 1
COUNCIL BLFS * CLEAR     30  30 100 CALM      30.09R
CRESTON *      CLEAR     32  32 100 N8        30.10R WCI  25
HARLAN *       CLEAR     23  23 100 CALM      30.14R
LAMONI         CLEAR     28  25  88 N5        30.10R WCI  23
RED OAK *      CLEAR     23  23 100 CALM      30.13R FOG
SHENANDOAH *   CLEAR     27  27 100 CALM      30.13R FOG
$$

IAZ047>049-059>061-072>074-084-271400-
   CENTRAL IOWA

CITY           SKY/WX    TMP DP  RH WIND       PRES   REMARKS
AMES           CLEAR     29  27  92 N7        30.10R WCI  22
ANKENY *       CLEAR     30  30 100 CALM      30.11R
BOONE *        CLEAR     30  30 100 N6        30.07S WCI  24
CHARITON *     CLEAR     30  30 100 NW6       30.09R WCI  24
DES MOINES     CLEAR     31  28  89 N5        30.10R WCI  26
GRINNELL *     SUNNY     27  26  96 N6        30.09R WCI  21
KNOXVILLE *    CLEAR     28  27  93 NW6       30.09R WCI  22
MARSHALLTOWN   CLEAR     28  26  92 N8        30.08R WCI  20
NEWTON *       CLEAR     28  28 100 N6        30.09R WCI  22
PELLA *        CLEAR     30  28  94 CALM      30.11R
PERRY *          N/A     28  28 100 W7        30.11R WCI  20
$$

IAZ004>006-015-016-023>025-035-036-271400-
   NORTH CENTRAL IOWA

CITY           SKY/WX    TMP DP  RH WIND       PRES   REMARKS
ALGONA *       CLEAR     30  30 100 NE6       30.10R WCI  24
CLARION *      CLEAR     30  30 100 N3        30.10R
ESTHERVILLE    FOG       28  27  96 N6        30.09R VSB 1/2 WCI  22
FORT DODGE *   CLEAR     28  27  93 N3        30.10R
MASON CITY     CLOUDY    32  29  88 N5        30.11R WCI  27
IOWA FALLS *   FAIR      30  28  93 N5        30.09R WCI  25
$$

IAZ007>011-017>019-026>030-037>042-050>054-066-271400-
   NORTHEAST IOWA

CITY           SKY/WX    TMP DP  RH WIND       PRES   REMARKS
CEDAR RAPIDS   MOCLDY    30  30 100 N5        30.08R WCI  25
CHARLES CITY * CLOUDY    34  32  93 N7        30.10R WCI  28
CLINTON *      CLOUDY    28  23  80 N14       30.11R WCI  17
DECORAH *      CLOUDY    28  27  93 NE7G13    30.08R WCI  21
DUBUQUE        CLOUDY    28  24  85 N12       30.07R WCI  18
MONTICELLO *   CLOUDY    32  28  86 N8G16     30.08R WCI  25
OELWEIN *      CLOUDY    32  30  93 NE7       30.09R WCI  26
WATERLOO       CLOUDY    33  31  92 W6        30.10R WCI  28
$$

IAZ064-065-067-068-078-271400-
   EAST CENTRAL IOWA

CITY           SKY/WX    TMP DP  RH WIND       PRES   REMARKS
DAVENPORT      CLOUDY    30  24  78 NE17      30.09R WCI  18
IOWA CITY      CLOUDY    32  30  92 NW5       30.10R WCI  27
MT. PLEASANT * CLOUDY    33  31  93 NW7       30.08R WCI  27
MUSCATINE *    CLOUDY    36  30  80 N8        30.09R WCI  29
QUAD CITIES    CLOUDY    31  26  82 N9        30.08R WCI  23
$$

IAZ062-063-075>077-085>089-095>099-271400-
   SOUTHEAST IOWA

CITY           SKY/WX    TMP DP  RH WIND       PRES   REMARKS
BURLINGTON     MOCLDY    34  31  88 NW7       30.07R WCI  28
FAIRFIELD *    PTCLDY    28  27  93 N6        30.09R WCI  22
FORT MADISON * CLOUDY    36  34  93 NW5       30.08R WCI  32
KEOKUK *       CLOUDY    34  32  93 N3        30.08R
OTTUMWA        CLEAR     28  26  92 NW6       30.07S WCI  22
WASHINGTON *   PTCLDY    32  32 100 NW8       30.09R WCI  25
$$

ABBREVIATIONS USED IN REMARKS
   TC - TEMPERATURES IN CELSIUS
  WCI - WIND CHILL INDEX
   HX - HEAT INDEX
  VSB - VISIBILITY
$$



USA.gov is the U.S. government's official web portal to all federal, state and local government web resources and services.